Regional Weather Roundup
Issued by NWS

Home | Current Version | Previous Version | Text Only | Print | Product List | Glossary On
Versions: 1 2 3 4 5 6 7 8 9 10 11 12 13 14 15 16 17 18 19 20 21 22 23 24 25 26 27 28 29 30 31 32 33 34 35 36 37 38 39 40 41 42 43 44 45 46 47 48 49 50
000
ASUS43 KTOP 041859
RWRKS

WEATHER ROUNDUP FOR KANSAS
NATIONAL WEATHER SERVICE GOODLAND KS
200 PM CDT MON MAY 04 2015

NOTE:  "FAIR" INDICATES FEW OR NO CLOUDS BELOW 12,000 FEET WITH NO
SIGNIFICANT WEATHER AND/OR OBSTRUCTIONS TO VISIBILITY.

KSZ001>006-013>018-027>032-041>047-042000-
NORTHWEST KANSAS

CITY           SKY/WX    TMP DP  RH WIND       PRES   REMARKS
GOODLAND       CLOUDY    60  47  61 NE10      30.12S
HAYS           PTSUNNY   72  52  49 NW3       30.04R
HILL CITY      PTSUNNY   66  54  65 E3        30.08S
RUSSELL        CLOUDY    70  55  59 N8        30.02S
$$

KSZ061>065-074>080-084>089-042000-
SOUTHWEST KANSAS

CITY           SKY/WX    TMP DP  RH WIND       PRES   REMARKS
DODGE CITY     PTSUNNY   78  53  41 S10G30    30.03F
ELKHART          N/A     77  52  41 SE10        N/A
GARDEN CITY    PTSUNNY   75  53  46 S14G26    30.03F
GREAT BEND     CLOUDY    79  57  47 SE13      30.00S
LIBERAL        PTSUNNY   75  54  46 SE10      30.03F
$$

KSZ066>073-081>083-090>101-042000-
SOUTHEAST KANSAS

CITY           SKY/WX    TMP DP  RH WIND       PRES   REMARKS
CHANUTE        SUNNY     82  63  52 S17       30.05F
COFFEYVILLE    MOSUNNY   80  63  55 S16G25    30.06F
HUTCHINSON     CLOUDY    81  60  48 S12       30.00F
MEDICINE LODGE   N/A     78  60  53 VRB7G20   30.00F
NEWTON         PTSUNNY   79  61  53 S14       30.04S
PARSONS        MOSUNNY   82  64  54 S10G21    30.07F
WICHITA INTL   PTSUNNY   83  60  45 S20       30.01F
WICHITA JABRA  PTSUNNY   78  59  51 S16       30.02S
WINFIELD       PTSUNNY   81  64  56 S13G22    30.04F
$$

KSZ007>012-019>026-033>040-048>060-102>105-042000-
NORTHEAST KANSAS

CITY           SKY/WX    TMP DP  RH WIND       PRES   REMARKS
CONCORDIA      LGT RAIN  72  58  61 CALM      30.02S
EMPORIA        MOSUNNY   83  61  47 S15       30.02S
LAWRENCE       MOSUNNY   82  61  48 VRB7      30.02F
MANHATTAN      PTSUNNY   84  57  39 SE15      29.97F
OLATHE IND     SUNNY     81  62  52 S8        30.05
OLATHE EXE     MOSUNNY   80  63  55 S10       30.04F
SALINA         CLOUDY    81  57  43 SE15      29.99F
TOPEKA BILLARD SUNNY     83  61  47 SE12      30.01F
TOPEKA FORBES  SUNNY     84  59  42 S13       30.01F
$$


USA.gov is the U.S. government's official web portal to all federal, state and local government web resources and services.